• In Deutschland
  • Länderverzeichnis
  • Für 7 Tage
  • Wassertemperatur
  • Satellitenkarten
  • Wetterkarte
  • Widgets
  • user-avatar
    Anmelden

    Stündliche Wetter Weiterstadt

    Heute, 16 Dezember, Samstag

    Zeit Temperatur Niederschläge Wind Luftdruck Luftfeuchtigkeit
    00:00 +3°C° 0,4 mm 1 m/S 741 mmHg 91%
    01:00 +3°C° 0 mm 1 m/S 741 mmHg 92%
    02:00 +3°C° 0,2 mm 1 m/S 742 mmHg 92%
    03:00 +3°C° 0,2 mm 1 m/S 742 mmHg 93%
    04:00 +3°C° 0,2 mm 1 m/S 742 mmHg 93%
    05:00 +2°C° 0 mm 1 m/S 743 mmHg 93%
    06:00 +2°C° 0 mm 1 m/S 743 mmHg 93%
    07:00 +2°C° 0 mm 1 m/S 744 mmHg 93%
    08:00 +3°C° 0 mm 1 m/S 745 mmHg 91%
    09:00 +2°C° 0 mm 2 m/S 746 mmHg 90%
    10:00 +3°C° 0 mm 2 m/S 746 mmHg 88%
    11:00 +3°C° 0 mm 2 m/S 747 mmHg 85%
    12:00 +3°C° 0 mm 3 m/S 748 mmHg 82%
    13:00 +3°C° 0 mm 3 m/S 748 mmHg 81%
    14:00 +3°C° 0,1 mm 3 m/S 749 mmHg 81%
    15:00 +3°C° 0,1 mm 3 m/S 749 mmHg 81%
    16:00 +2°C° 0,1 mm 3 m/S 750 mmHg 82%
    17:00 +2°C° 0 mm 3 m/S 750 mmHg 83%
    18:00 +1°C° 0 mm 3 m/S 751 mmHg 85%
    19:00 +1°C° 0 mm 3 m/S 751 mmHg 86%
    20:00 +1°C° 0 mm 3 m/S 752 mmHg 87%
    21:00 +1°C° 0 mm 3 m/S 752 mmHg 87%
    22:00 0°C° 0 mm 3 m/S 753 mmHg 88%
    23:00 0°C° 0 mm 3 m/S 753 mmHg 88%

    Morgen, 17 Dezember, Sonntag

    Zeit Temperatur Niederschläge Wind Luftdruck Luftfeuchtigkeit
    00:00 0°C° 0 mm 3 m/S 753 mmHg 89%
    01:00 0°C° 0 mm 3 m/S 753 mmHg 89%
    02:00 0°C° 0 mm 3 m/S 754 mmHg 89%
    03:00 0°C° 0 mm 3 m/S 754 mmHg 90%
    04:00 0°C° 0 mm 3 m/S 754 mmHg 90%
    05:00 0°C° 0,1 mm 3 m/S 755 mmHg 89%
    06:00 0°C° 0,1 mm 3 m/S 755 mmHg 89%
    07:00 0°C° 0,1 mm 3 m/S 755 mmHg 89%
    08:00 0°C° 0,1 mm 3 m/S 756 mmHg 88%
    09:00 0°C° 0,1 mm 3 m/S 756 mmHg 87%
    10:00 +1°C° 0,1 mm 3 m/S 757 mmHg 86%
    11:00 +1°C° 0 mm 3 m/S 757 mmHg 85%
    12:00 +1°C° 0 mm 3 m/S 757 mmHg 84%
    13:00 +2°C° 0 mm 3 m/S 758 mmHg 82%
    14:00 +3°C° 0 mm 2 m/S 758 mmHg 82%
    15:00 +3°C° 0 mm 2 m/S 758 mmHg 83%
    16:00 +3°C° 0 mm 2 m/S 758 mmHg 83%
    17:00 +3°C° 0 mm 2 m/S 759 mmHg 84%
    18:00 +3°C° 0 mm 2 m/S 759 mmHg 86%
    19:00 +2°C° 0 mm 2 m/S 759 mmHg 87%
    20:00 +2°C° 0 mm 2 m/S 759 mmHg 88%
    21:00 +2°C° 0 mm 2 m/S 759 mmHg 88%
    22:00 +2°C° 0 mm 2 m/S 760 mmHg 89%
    23:00 +1°C° 0 mm 3 m/S 759 mmHg 89%

    übermorgen, 18 Dezember, Montag

    Zeit Temperatur Niederschläge Wind Luftdruck Luftfeuchtigkeit
    00:00 +1°C° 0 mm 3 m/S 759 mmHg 89%
    01:00 +1°C° 0 mm 3 m/S 759 mmHg 88%
    02:00 0°C° 0,1 mm 4 m/S 758 mmHg 87%
    03:00 0°C° 0,1 mm 4 m/S 758 mmHg 85%
    04:00 0°C° 0,1 mm 5 m/S 757 mmHg 84%
    05:00 0°C° 1 mm 5 m/S 757 mmHg 86%
    06:00 -1°C° 1 mm 4 m/S 756 mmHg 88%
    07:00 -1°C° 1 mm 4 m/S 755 mmHg 91%
    08:00 0°C° 0,6 mm 4 m/S 755 mmHg 92%
    09:00 0°C° 0,6 mm 4 m/S 755 mmHg 93%
    10:00 +1°C° 0,6 mm 3 m/S 755 mmHg 95%
    11:00 +2°C° 0,1 mm 3 m/S 755 mmHg 93%
    12:00 +3°C° 0,1 mm 3 m/S 756 mmHg 92%
    13:00 +3°C° 0,1 mm 3 m/S 756 mmHg 90%
    14:00 +3°C° 0 mm 3 m/S 756 mmHg 90%
    15:00 +3°C° 0 mm 3 m/S 757 mmHg 90%
    16:00 +4°C° 0 mm 2 m/S 757 mmHg 90%
    17:00 +3°C° 0 mm 2 m/S 758 mmHg 91%
    18:00 +3°C° 0 mm 2 m/S 759 mmHg 91%
    19:00 +2°C° 0 mm 2 m/S 760 mmHg 92%
    20:00 +2°C° 0 mm 2 m/S 760 mmHg 93%
    21:00 +2°C° 0 mm 2 m/S 761 mmHg 93%
    22:00 +2°C° 0 mm 1 m/S 762 mmHg 94%
    23:00 +2°C° 0 mm 1 m/S 762 mmHg 93%

    19 Dezember, Dienstag

    Zeit Temperatur Niederschläge Wind Luftdruck Luftfeuchtigkeit
    00:00 +2°C° 0 mm 1 m/S 763 mmHg 93%
    01:00 +2°C° 0 mm 1 m/S 763 mmHg 93%
    02:00 +1°C° 0 mm 1 m/S 764 mmHg 93%
    03:00 +1°C° 0 mm 1 m/S 764 mmHg 93%
    04:00 +1°C° 0 mm 1 m/S 764 mmHg 93%
    05:00 +1°C° 0 mm 1 m/S 764 mmHg 93%
    06:00 +1°C° 0 mm 1 m/S 765 mmHg 93%
    07:00 +1°C° 0 mm 1 m/S 765 mmHg 93%
    08:00 +1°C° 0 mm 1 m/S 766 mmHg 92%
    09:00 +2°C° 0 mm 1 m/S 766 mmHg 91%
    10:00 +2°C° 0 mm 1 m/S 766 mmHg 90%
    11:00 +3°C° 0 mm 1 m/S 767 mmHg 88%
    12:00 +4°C° 0 mm 1 m/S 767 mmHg 87%
    13:00 +4°C° 0 mm 1 m/S 767 mmHg 86%
    14:00 +4°C° 0 mm 1 m/S 767 mmHg 88%
    15:00 +4°C° 0 mm 1 m/S 767 mmHg 89%
    16:00 +3°C° 0 mm 1 m/S 767 mmHg 91%
    17:00 +3°C° 0 mm 1 m/S 767 mmHg 91%
    18:00 +3°C° 0 mm 1 m/S 767 mmHg 91%
    19:00 +3°C° 0 mm 1 m/S 767 mmHg 92%
    20:00 +2°C° 0 mm 2 m/S 767 mmHg 92%
    21:00 +2°C° 0 mm 2 m/S 767 mmHg 92%
    22:00 +2°C° 0 mm 2 m/S 767 mmHg 92%
    23:00 +2°C° 0 mm 2 m/S 767 mmHg 93%

    20 Dezember, Mittwoch

    Zeit Temperatur Niederschläge Wind Luftdruck Luftfeuchtigkeit
    00:00 +1°C° 0 mm 2 m/S 766 mmHg 93%
    01:00 +1°C° 0 mm 2 m/S 766 mmHg 93%
    02:00 +1°C° 0 mm 2 m/S 766 mmHg 93%
    03:00 +1°C° 0 mm 2 m/S 766 mmHg 93%
    04:00 +1°C° 0 mm 2 m/S 766 mmHg 92%
    05:00 +1°C° 0 mm 2 m/S 766 mmHg 92%
    06:00 +2°C° 0 mm 2 m/S 766 mmHg 92%
    07:00 +2°C° 0 mm 2 m/S 766 mmHg 91%
    08:00 +2°C° 0 mm 2 m/S 766 mmHg 92%
    09:00 +3°C° 0 mm 2 m/S 766 mmHg 92%
    10:00 +3°C° 0 mm 2 m/S 766 mmHg 93%
    11:00 +3°C° 0,1 mm 2 m/S 766 mmHg 93%
    12:00 +3°C° 0,1 mm 2 m/S 766 mmHg 94%
    13:00 +3°C° 0,1 mm 2 m/S 766 mmHg 94%
    14:00 +4°C° 0 mm 2 m/S 766 mmHg 95%
    15:00 +4°C° 0 mm 2 m/S 766 mmHg 95%
    16:00 +5°C° 0 mm 1 m/S 765 mmHg 95%
    17:00 +4°C° 0 mm 2 m/S 766 mmHg 96%
    18:00 +4°C° 0 mm 2 m/S 766 mmHg 96%
    19:00 +4°C° 0 mm 2 m/S 766 mmHg 96%
    20:00 +4°C° 0 mm 2 m/S 766 mmHg 97%
    21:00 +5°C° 0 mm 2 m/S 766 mmHg 97%
    22:00 +5°C° 0 mm 2 m/S 766 mmHg 97%
    23:00 +5°C° 0 mm 2 m/S 766 mmHg 97%

    21 Dezember, Donnerstag

    Zeit Temperatur Niederschläge Wind Luftdruck Luftfeuchtigkeit
    00:00 +5°C° 0 mm 2 m/S 766 mmHg 97%
    01:00 +5°C° 0 mm 2 m/S 766 mmHg 97%
    02:00 +6°C° 0 mm 2 m/S 766 mmHg 97%
    03:00 +6°C° 0 mm 2 m/S 766 mmHg 96%
    04:00 +6°C° 0 mm 2 m/S 766 mmHg 96%
    05:00 +6°C° 0 mm 2 m/S 766 mmHg 96%
    06:00 +6°C° 0 mm 2 m/S 765 mmHg 96%
    07:00 +5°C° 0 mm 3 m/S 765 mmHg 96%
    08:00 +5°C° 0 mm 3 m/S 765 mmHg 96%
    09:00 +5°C° 0 mm 3 m/S 766 mmHg 95%
    10:00 +7°C° 0 mm 3 m/S 766 mmHg 95%
    11:00 +7°C° 0 mm 3 m/S 765 mmHg 93%
    12:00 +8°C° 0 mm 3 m/S 765 mmHg 92%
    13:00 +7°C° 0 mm 4 m/S 765 mmHg 90%
    14:00 +7°C° 0 mm 4 m/S 764 mmHg 90%
    15:00 +7°C° 0 mm 4 m/S 764 mmHg 90%
    16:00 +7°C° 0 mm 4 m/S 764 mmHg 90%
    17:00 +7°C° 0 mm 4 m/S 764 mmHg 91%
    18:00 +7°C° 0 mm 4 m/S 764 mmHg 91%
    19:00 +8°C° 0 mm 3 m/S 764 mmHg 92%
    20:00 +7°C° 0 mm 4 m/S 763 mmHg 92%
    21:00 +7°C° 0 mm 4 m/S 763 mmHg 92%
    22:00 +7°C° 0 mm 4 m/S 763 mmHg 92%
    23:00 +7°C° 0,1 mm 4 m/S 762 mmHg 91%
    Mehr zeigen